Weather reports worldwide

Advertisment
Ustica, Italy (16400): temperature & dewpoint: 15.01.2018 04:00:00 - 21.01.2018 04:00:00 (CET)Ustica, Italy (16400): wind speed: 15.01.2018 04:00:00 - 21.01.2018 04:00:00 (CET)Ustica, Italy (16400): wind direction: 15.01.2018 04:00:00 - 21.01.2018 04:00:00 (CET)Ustica, Italy (16400): reduced air pressure: 15.01.2018 04:00:00 - 21.01.2018 04:00:00 (CET)Ustica, Italy (16400): visibility: 15.01.2018 04:00:00 - 21.01.2018 04:00:00 (CET)Ustica, Italy (16400): sunshine duration: 15.01.2018 04:00:00 - 21.01.2018 04:00:00 (CET)
Date & Time tt [°C] td [°C] ff [km/h] ff [kn] dd ppp [hPa] vv [km] sd [min]
21.01.2018 04:00:00 - - - - - - - -
21.01.2018 03:00:00 - - - - - - - -
21.01.2018 02:00:00 - - - - - - - -
21.01.2018 01:00:00 - - - - - - - -
21.01.2018 00:00:00 - - - - - - - -
20.01.2018 23:00:00 - - - - - - - -
20.01.2018 22:00:00 - - - - - - - -
20.01.2018 21:00:00 - - - - - - - -
20.01.2018 20:00:00 - - - - - - - -
20.01.2018 19:00:00 11,2 10,1 22 12 N 1015,0 18 0
20.01.2018 18:00:00 11,6 10,5 16 9 NE 1014,9 18 0
20.01.2018 17:00:00 13,0 10,6 22 12 N 1014,3 20 18
20.01.2018 16:00:00 13,4 11,4 15 8 N 1014,3 20 48
20.01.2018 15:00:00 13,0 10,6 13 7 NNW 1014,0 20 48
20.01.2018 14:00:00 13,2 10,7 37 20 NNW 1014,4 15 60
20.01.2018 13:00:00 13,2 9,7 18 10 N 1014,9 15 60
20.01.2018 12:00:00 13,0 8,7 35 19 SSW 1015,6 15 60
20.01.2018 11:00:00 13,2 9,1 16 9 NW 1015,6 15 60
20.01.2018 10:00:00 11,4 9,1 22 12 NNW 1015,9 15 60
20.01.2018 09:00:00 11,2 9,1 5 3 NW 1014,9 15 24
20.01.2018 08:00:00 11,4 9,5 18 10 WSW 1014,5 15 0
20.01.2018 07:00:00 11,6 9,9 16 9 SW 1014,5 10 0
20.01.2018 06:00:00 - - - - - - - -
20.01.2018 05:00:00 - - - - - - - -
20.01.2018 04:00:00 - - - - - - - -
20.01.2018 03:00:00 - - - - - - - -
20.01.2018 02:00:00 - - - - - - - -
20.01.2018 01:00:00 - - - - - - - -
20.01.2018 00:00:00 - - - - - - - -
19.01.2018 23:00:00 - - - - - - - -
19.01.2018 22:00:00 - - - - - - - -
19.01.2018 21:00:00 - - - - - - - -
19.01.2018 20:00:00 - - - - - - - -
19.01.2018 19:00:00 11,8 10,2 29 16 SW 1015,7 20 0
19.01.2018 18:00:00 11,8 10,5 28 15 SW 1015,6 20 0
19.01.2018 17:00:00 11,8 10,5 31 17 SSW 1015,6 20 18
19.01.2018 16:00:00 12,6 11,0 34 18 SW 1015,6 20 24
19.01.2018 15:00:00 13,2 11,6 34 18 SSW 1015,9 20 60
19.01.2018 14:00:00 13,8 12,2 34 18 SSW 1016,0 20 60
19.01.2018 13:00:00 13,2 10,7 31 17 S 1016,8 25 60
19.01.2018 12:00:00 13,0 10,7 16 9 WSW 1017,5 20 60
19.01.2018 11:00:00 12,4 10,0 28 15 S 1018,4 20 60
19.01.2018 10:00:00 12,0 10,1 24 13 WSW 1018,5 20 60
19.01.2018 09:00:00 11,2 9,6 26 14 SW 1018,6 20 12
19.01.2018 08:00:00 11,0 9,6 31 17 SSW 1018,5 25 0
19.01.2018 07:00:00 11,0 9,4 29 16 SW 1019,1 30 0
19.01.2018 06:00:00 - - - - - - - -
19.01.2018 05:00:00 - - - - - - - -
19.01.2018 04:00:00 - - - - - - - -
19.01.2018 03:00:00 - - - - - - - -
19.01.2018 02:00:00 - - - - - - - -
19.01.2018 01:00:00 - - - - - - - -
19.01.2018 00:00:00 - - - - - - - -
18.01.2018 23:00:00 - - - - - - - -
18.01.2018 22:00:00 - - - - - - - -
18.01.2018 21:00:00 - - - - - - - -
18.01.2018 20:00:00 - - - - - - - -
18.01.2018 19:00:00 10,8 9,2 9 5 SSW 1022,7 15 0
18.01.2018 18:00:00 11,0 8,6 21 11 SW 1022,7 15 0
18.01.2018 17:00:00 11,4 8,6 0 0 N 1022,8 15 24
18.01.2018 16:00:00 12,0 7,9 9 5 WSW 1022,9 15 60
18.01.2018 15:00:00 12,8 7,5 15 8 SW 1022,6 15 60
18.01.2018 14:00:00 13,4 7,8 0 0 N 1022,6 15 60
18.01.2018 13:00:00 13,2 7,9 4 2 N 1023,6 15 60
18.01.2018 12:00:00 13,2 7,7 5 3 W 1023,6 15 60
18.01.2018 11:00:00 13,2 7,9 16 9 NW 1024,4 20 60
18.01.2018 10:00:00 13,0 7,5 5 3 NNE 1023,6 15 42
18.01.2018 09:00:00 11,4 7,3 4 2 N 1023,1 15 60
18.01.2018 08:00:00 10,4 6,7 21 11 W 1022,4 15 12
18.01.2018 07:00:00 10,2 8,3 13 7 WNW 1021,7 15 0
18.01.2018 06:00:00 - - - - - - - -
18.01.2018 05:00:00 - - - - - - - -
18.01.2018 04:00:00 - - - - - - - -
18.01.2018 03:00:00 - - - - - - - -
18.01.2018 02:00:00 - - - - - - - -
18.01.2018 01:00:00 - - - - - - - -
18.01.2018 00:00:00 - - - - - - - -
17.01.2018 23:00:00 - - - - - - - -
17.01.2018 22:00:00 - - - - - - - -
17.01.2018 21:00:00 - - - - - - - -
17.01.2018 20:00:00 - - - - - - - -
17.01.2018 19:00:00 12,2 5,8 74 40 NW 1012,4 15 0
17.01.2018 18:00:00 12,4 7,9 74 40 WNW 1012,7 15 0
17.01.2018 17:00:00 12,8 9,8 48 26 W 1012,2 15 12
17.01.2018 16:00:00 13,0 11,4 34 18 WSW 1012,2 10 60
17.01.2018 15:00:00 13,0 11,4 21 11 E 1011,7 10 42
17.01.2018 14:00:00 13,2 11,6 44 24 WSW 1011,3 10 60
17.01.2018 13:00:00 13,0 11,4 37 20 WSW 1012,4 10 48
17.01.2018 12:00:00 13,0 11,4 34 18 SW 1012,9 10 30
17.01.2018 11:00:00 12,2 10,6 46 25 SW 1014,3 10 0
17.01.2018 10:00:00 12,4 11,0 57 31 SW 1014,2 10 0
17.01.2018 09:00:00 12,0 10,4 26 14 W 1014,4 10 0
17.01.2018 08:00:00 11,8 10,5 22 12 SSW 1014,7 10 0
17.01.2018 07:00:00 11,4 9,8 34 18 WSW 1014,9 10 0
17.01.2018 06:00:00 - - - - - - - -
17.01.2018 05:00:00 - - - - - - - -
17.01.2018 04:00:00 - - - - - - - -
17.01.2018 03:00:00 - - - - - - - -
17.01.2018 02:00:00 - - - - - - - -
17.01.2018 01:00:00 - - - - - - - -
17.01.2018 00:00:00 - - - - - - - -
16.01.2018 23:00:00 - - - - - - - -
16.01.2018 22:00:00 - - - - - - - -
16.01.2018 21:00:00 - - - - - - - -
16.01.2018 20:00:00 - - - - - - - -
16.01.2018 19:00:00 11,8 11,5 35 19 WSW 1019,7 20 0
16.01.2018 18:00:00 11,8 11,0 29 16 WSW 1019,6 20 0
16.01.2018 17:00:00 12,2 11,3 37 20 SW 1019,9 20 24
16.01.2018 16:00:00 12,8 11,7 35 19 WSW 1020,1 20 60
16.01.2018 15:00:00 13,0 11,9 48 26 WSW 1020,2 20 60
16.01.2018 14:00:00 13,2 11,6 67 36 WSW 1020,7 20 60
16.01.2018 13:00:00 13,0 10,7 22 12 SW 1021,6 30 60
16.01.2018 12:00:00 13,0 9,8 28 15 SSW 1022,6 30 60
16.01.2018 11:00:00 12,4 9,4 34 18 SSW 1024,1 30 60
16.01.2018 10:00:00 12,0 9,0 28 15 WNW 1024,2 30 60
16.01.2018 09:00:00 11,4 8,4 9 5 SW 1023,5 30 42
16.01.2018 08:00:00 11,4 8,8 24 13 W 1023,2 30 12
16.01.2018 07:00:00 11,4 9,0 13 7 WSW 1022,5 30 0
16.01.2018 06:00:00 - - - - - - - -
16.01.2018 05:00:00 - - - - - - - -
16.01.2018 04:00:00 - - - - - - - -
16.01.2018 03:00:00 - - - - - - - -
16.01.2018 02:00:00 - - - - - - - -
16.01.2018 01:00:00 - - - - - - - -
16.01.2018 00:00:00 - - - - - - - -
15.01.2018 23:00:00 - - - - - - - -
15.01.2018 22:00:00 - - - - - - - -
15.01.2018 21:00:00 - - - - - - - -
15.01.2018 20:00:00 - - - - - - - -
15.01.2018 19:00:00 11,4 10,3 21 11 SW 1024,0 16 -
15.01.2018 18:00:00 11,8 11,0 21 11 SW 1023,8 16 -
15.01.2018 17:00:00 12,0 11,1 18 10 WSW 1023,3 20 -
15.01.2018 16:00:00 13,2 11,6 21 11 SSW 1023,3 20 18
15.01.2018 15:00:00 13,4 12,0 24 13 SW 1022,7 20 60
15.01.2018 14:00:00 12,8 11,2 28 15 SW 1023,3 20 18
15.01.2018 13:00:00 12,4 11,0 22 12 S 1024,2 20 30
15.01.2018 12:00:00 13,0 11,9 21 11 S 1024,5 20 24
15.01.2018 11:00:00 13,0 11,4 21 11 S 1024,4 20 -
15.01.2018 10:00:00 12,0 10,7 18 10 S 1023,2 20 -
15.01.2018 09:00:00 11,2 10,0 21 11 S 1023,6 20 42
15.01.2018 08:00:00 11,0 9,7 24 13 S 1022,9 16 -
15.01.2018 07:00:00 10,6 9,2 21 11 S 1022,1 16 -
15.01.2018 06:00:00 - - - - - - - -
15.01.2018 05:00:00 - - - - - - - -
15.01.2018 04:00:00 - - - - - - - -

tt = temperature
td = dewpoint
ff = wind speed
dd = wind direction
ppp = reduced air pressure
vv = visibility
sd = sunshine duration

Next stations